Portada
METAR-TAF:

METAR-TAF

Aeropuertos :

Teruel, España

Aeródromo de Teruel

latitud: 40-24-43N, longitud: 01-13-03W, altitud: 1030 m

Observación

El informe se hizo hace 20 horas y 18 minutos, a las 15:00 UTC
Viento 27 kt del norte-noroeste
Temperatura 10°C
Humedad 53%
Presión 1014 hPa
Visibilidad 10 km o más

METAR: LETL 201500Z AUTO 34027KT 9999 SCT033/// 10/01 Q1014

Hora: 12:18 (11:18 UTC)


TAF: falta

Observaciones y pronósticos meteorológicos de más de 4000 aeropuertos (mensajes METAR y TAF).

Los puntos amarillos y rojos representan las estaciones disponibles.

Ponga el ratón en el punto deseado para ver el nombre de la estación.

Haga clic para ver las observaciones y los pronósticos meteorológicos.

Para cambiar el mapa : haga clic en los botones verdes con una cruz de color negro para hacer un zoom, en el botón verde con un guión para alejar o en las flechas verdes para mapas adyacentes.


METAR-TAF: